| time (UTC) | temp F | wind direction | speed MPH | gust MPH | rain 1hr in | rain 24hr in | rain mn in | humidity % | barometer mb |
| 20260903194540 | 76 | 173 | 5.0 | 9.0 | 0.00 | 0.00 | 0.00 | 83 | 1022.7 |
| 20260903194535 | 76 | 173 | 5.0 | 8.0 | 0.00 | 0.00 | 0.00 | 83 | 1013.2 |
| 20260903193046 | 76 | 182 | 3.0 | 8.0 | 0.00 | 0.00 | 0.00 | 82 | 1022.9 |
| 20260903193023 | 76 | 182 | 3.0 | 8.0 | 0.00 | 0.00 | 0.00 | 83 | 1013.4 |
| 20260903191543 | 76 | 183 | 0.0 | 7.0 | 0.00 | 0.00 | 0.00 | 82 | 1022.5 |
| 20260903191522 | 76 | 183 | 0.0 | 6.0 | 0.00 | 0.00 | 0.00 | 82 | 1013.0 |
| 20260903190053 | 76 | 184 | 4.0 | 10.0 | 0.00 | 0.00 | 0.00 | 82 | 1022.7 |
| 20260903190020 | 76 | 182 | 5.0 | 9.0 | 0.00 | 0.00 | 0.00 | 82 | 1013.3 |
| 20260903184554 | 77 | 188 | 3.0 | 8.0 | 0.00 | 0.00 | 0.00 | 79 | 1022.5 |
| 20260903184520 | 77 | 188 | 3.0 | 8.0 | 0.00 | 0.00 | 0.00 | 79 | 1013.0 |
| 20260903183056 | 77 | 167 | 1.0 | 6.0 | 0.00 | 0.00 | 0.00 | 79 | 1022.1 |
| 20260903183020 | 77 | 167 | 1.0 | 6.0 | 0.00 | 0.00 | 0.00 | 79 | 1012.7 |
| 20260903181549 | 77 | 0 | 1.0 | 3.0 | 0.00 | 0.00 | 0.00 | 80 | 1022.3 |
| 20260903181519 | 77 | 112 | 1.0 | 3.0 | 0.00 | 0.00 | 0.00 | 81 | 1012.9 |
| 20260903180047 | 77 | 0 | 0.0 | 3.0 | 0.00 | 0.00 | 0.00 | 79 | 1022.3 |
| 20260903180019 | 77 | 107 | 0.0 | 3.0 | 0.00 | 0.00 | 0.00 | 79 | 1012.8 |
| 20260903174544 | 77 | 0 | 1.0 | 3.0 | 0.00 | 0.00 | 0.00 | 77 | 1022.5 |
| 20260903174518 | 77 | 107 | 1.0 | 3.0 | 0.00 | 0.00 | 0.00 | 78 | 1013.0 |
| 20260903173050 | 77 | 0 | 0.0 | 3.0 | 0.00 | 0.00 | 0.00 | 77 | 1022.5 |
| 20260903173017 | 77 | 98 | 0.0 | 3.0 | 0.00 | 0.00 | 0.00 | 77 | 1013.0 |
| 20260903171604 | 77 | 98 | 1.0 | 7.0 | 0.00 | 0.00 | 0.00 | 76 | 1022.3 |
| 20260903171523 | 77 | 98 | 1.0 | 7.0 | 0.00 | 0.00 | 0.00 | 76 | 1012.9 |
| 20260903170052 | 78 | 16 | 2.0 | 8.0 | 0.00 | 0.00 | 0.00 | 78 | 1022.4 |
| 20260903170016 | 78 | 41 | 2.0 | 8.0 | 0.00 | 0.00 | 0.00 | 79 | 1013.1 |
| 20260903164550 | 76 | 66 | 3.0 | 7.0 | 0.00 | 0.00 | 0.00 | 79 | 1022.5 |
| 20260903164512 | 76 | 61 | 3.0 | 7.0 | 0.00 | 0.00 | 0.00 | 80 | 1013.2 |
| 20260903163050 | 75 | 109 | 2.0 | 8.0 | 0.00 | 0.00 | 0.00 | 81 | 1022.8 |
| 20260903163013 | 75 | 111 | 2.0 | 6.0 | 0.00 | 0.00 | 0.00 | 82 | 1013.4 |
| 20260903161548 | 74 | 51 | 2.0 | 5.0 | 0.00 | 0.00 | 0.00 | 88 | 1022.9 |
| 20260903161509 | 73 | 51 | 2.0 | 5.0 | 0.00 | 0.00 | 0.00 | 87 | 1013.5 |
| 20260903160101 | 72 | 48 | 1.0 | 8.0 | 0.00 | 0.00 | 0.00 | 89 | 1013.6 |
| 20260903160047 | 72 | 0 | 1.0 | 8.0 | 0.00 | 0.00 | 0.00 | 88 | 1022.9 |
| 20260903154559 | 71 | 69 | 1.0 | 7.0 | 0.00 | 0.00 | 0.00 | 90 | 1013.7 |
| 20260903154550 | 71 | 68 | 1.0 | 7.0 | 0.00 | 0.00 | 0.00 | 91 | 1023.1 |
| 20260903153054 | 68 | 82 | 1.0 | 4.0 | 0.00 | 0.00 | 0.00 | 95 | 1013.7 |
| 20260903153051 | 68 | 84 | 1.0 | 4.0 | 0.00 | 0.00 | 0.00 | 95 | 1023.0 |
| 20260903151604 | 67 | 117 | 0.0 | 2.0 | 0.00 | 0.00 | 0.00 | 94 | 1023.2 |
| 20260903151551 | 67 | 117 | 0.0 | 2.0 | 0.00 | 0.00 | 0.00 | 95 | 1013.9 |
| 20260903150059 | 67 | 174 | 1.0 | 3.0 | 0.00 | 0.00 | 0.00 | 94 | 1013.8 |
| 20260903150051 | 67 | 0 | 0.0 | 3.0 | 0.00 | 0.00 | 0.00 | 93 | 1023.2 |
| 20260903144552 | 67 | 175 | 0.0 | 3.0 | 0.00 | 0.00 | 0.00 | 94 | 1013.4 |
| 20260903144545 | 67 | 0 | 1.0 | 6.0 | 0.00 | 0.00 | 0.00 | 94 | 1022.8 |
| 20260903143054 | 66 | 162 | 2.0 | 7.0 | 0.00 | 0.00 | 0.00 | 94 | 1023.2 |
| 20260903143046 | 66 | 155 | 2.0 | 9.0 | 0.00 | 0.00 | 0.00 | 94 | 1013.9 |
| 20260903141550 | 66 | 148 | 7.0 | 14.0 | 0.00 | 0.00 | 0.00 | 93 | 1023.3 |
| 20260903141543 | 66 | 165 | 5.0 | 14.0 | 0.00 | 0.00 | 0.00 | 93 | 1013.9 |
| 20260903140104 | 67 | 165 | 2.0 | 6.0 | 0.00 | 0.00 | 0.00 | 92 | 1023.2 |
| 20260903140042 | 66 | 165 | 3.0 | 6.0 | 0.00 | 0.00 | 0.00 | 93 | 1013.9 |
| 20260903134549 | 66 | 113 | 0.0 | 4.0 | 0.00 | 0.00 | 0.00 | 92 | 1023.2 |
| 20260903134546 | 66 | 113 | 1.0 | 4.0 | 0.00 | 0.00 | 0.00 | 92 | 1013.9 |
| 20260903133047 | 66 | 0 | 0.0 | 3.0 | 0.00 | 0.00 | 0.00 | 91 | 1023.4 |
| 20260903133040 | 66 | 89 | 0.0 | 3.0 | 0.00 | 0.00 | 0.00 | 92 | 1014.0 |
| 20260903131544 | 66 | 0 | 0.0 | 3.0 | 0.00 | 0.00 | 0.00 | 91 | 1023.2 |
| 20260903130054 | 66 | 0 | 0.0 | 2.0 | 0.00 | 0.00 | 0.00 | 91 | 1023.3 |
| 20260903130043 | 66 | 88 | 0.0 | 2.0 | 0.00 | 0.00 | 0.00 | 91 | 1013.9 |
| 20260903124550 | 65 | 0 | 0.0 | 0.0 | 0.00 | 0.00 | 0.00 | 93 | 1022.9 |
| 20260903124532 | 65 | 88 | 0.0 | 0.0 | 0.00 | 0.00 | 0.00 | 94 | 1013.6 |
| 20260903123044 | 64 | 0 | 0.0 | 0.0 | 0.00 | 0.00 | 0.00 | 92 | 1022.6 |
| 20260903123040 | 64 | 88 | 0.0 | 0.0 | 0.00 | 0.00 | 0.00 | 93 | 1013.2 |
| 20260903121552 | 64 | 0 | 0.0 | 0.0 | 0.00 | 0.00 | 0.00 | 94 | 1022.4 |
| 20260903120059 | 63 | 0 | 0.0 | 0.0 | 0.00 | 0.00 | 0.00 | 94 | 1022.5 |
| 20260903120030 | 63 | 88 | 0.0 | 0.0 | 0.00 | 0.00 | 0.00 | 94 | 1013.1 |
| 20260903114549 | 63 | 0 | 0.0 | 0.0 | 0.00 | 0.00 | 0.00 | 94 | 1022.5 |
| 20260903114527 | 63 | 88 | 0.0 | 0.0 | 0.00 | 0.00 | 0.00 | 94 | 1013.0 |
| 20260903113049 | 62 | 0 | 0.0 | 0.0 | 0.00 | 0.00 | 0.00 | 94 | 1022.7 |
| 20260903113025 | 62 | 88 | 0.0 | 0.0 | 0.00 | 0.00 | 0.00 | 95 | 1013.3 |
| 20260903111542 | 62 | 0 | 0.0 | 0.0 | 0.00 | 0.00 | 0.00 | 95 | 1022.5 |
| 20260903111525 | 62 | 88 | 0.0 | 0.0 | 0.00 | 0.00 | 0.00 | 95 | 1013.1 |
| 20260903110048 | 62 | 0 | 0.0 | 0.0 | 0.00 | 0.00 | 0.00 | 94 | 1022.3 |
| 20260903110024 | 62 | 88 | 0.0 | 0.0 | 0.00 | 0.00 | 0.00 | 95 | 1013.0 |
| 20260903104544 | 62 | 0 | 0.0 | 0.0 | 0.00 | 0.04 | 0.00 | 95 | 1022.4 |
| 20260903104540 | 62 | 88 | 0.0 | 0.0 | 0.00 | 0.05 | 0.00 | 95 | 1013.0 |
| 20260903103044 | 62 | 0 | 0.0 | 0.0 | 0.00 | 0.04 | 0.00 | 94 | 1022.5 |
| 20260903103022 | 62 | 88 | 0.0 | 0.0 | 0.00 | 0.05 | 0.00 | 95 | 1013.1 |
| 20260903101557 | 61 | 0 | 0.0 | 0.0 | 0.00 | 0.04 | 0.00 | 95 | 1022.4 |
| 20260903101522 | 61 | 88 | 0.0 | 0.0 | 0.00 | 0.05 | 0.00 | 95 | 1013.1 |
| 20260903100052 | 61 | 0 | 0.0 | 0.0 | 0.00 | 0.04 | 0.00 | 94 | 1022.3 |
| 20260903100035 | 61 | 88 | 0.0 | 0.0 | 0.00 | 0.05 | 0.00 | 95 | 1013.0 |
| 20260903094607 | 61 | 0 | 0.0 | 0.0 | 0.00 | 0.22 | 0.00 | 94 | 1022.5 |
| 20260903094520 | 61 | 88 | 0.0 | 0.0 | 0.00 | 0.22 | 0.00 | 95 | 1013.1 |
| 20260903093053 | 61 | 0 | 0.0 | 0.0 | 0.00 | 0.22 | 0.00 | 94 | 1022.5 |
| 20260903093026 | 61 | 88 | 0.0 | 0.0 | 0.00 | 0.22 | 0.00 | 95 | 1013.1 |
| 20260903091549 | 61 | 0 | 0.0 | 0.0 | 0.00 | 0.22 | 0.00 | 94 | 1022.5 |
| 20260903091519 | 61 | 88 | 0.0 | 0.0 | 0.00 | 0.22 | 0.00 | 95 | 1013.2 |
| 20260903090047 | 62 | 0 | 0.0 | 1.0 | 0.00 | 0.22 | 0.00 | 92 | 1022.4 |
| 20260903090017 | 62 | 88 | 0.0 | 1.0 | 0.00 | 0.22 | 0.00 | 92 | 1013.1 |
| 20260903084545 | 63 | 0 | 0.0 | 4.0 | 0.00 | 0.27 | 0.00 | 90 | 1022.3 |
| 20260903084518 | 63 | 88 | 0.0 | 3.0 | 0.00 | 0.27 | 0.00 | 90 | 1013.0 |
| 20260903083044 | 63 | 0 | 1.0 | 6.0 | 0.00 | 0.27 | 0.00 | 89 | 1022.2 |
| 20260903083013 | 63 | 87 | 1.0 | 6.0 | 0.00 | 0.27 | 0.00 | 90 | 1012.9 |
| 20260903081550 | 63 | 0 | 0.0 | 4.0 | 0.00 | 0.27 | 0.00 | 89 | 1022.4 |
| 20260903081518 | 64 | 45 | 0.0 | 4.0 | 0.00 | 0.27 | 0.00 | 90 | 1013.1 |
| 20260903080058 | 64 | 0 | 0.0 | 3.0 | 0.00 | 0.27 | 0.00 | 89 | 1022.5 |
| 20260903080010 | 64 | 61 | 0.0 | 3.0 | 0.00 | 0.27 | 0.00 | 89 | 1013.2 |
| 20260903074545 | 64 | 62 | 1.0 | 4.0 | 0.00 | 0.27 | 0.00 | 89 | 1022.5 |
| 20260903074510 | 64 | 61 | 0.0 | 4.0 | 0.00 | 0.27 | 0.00 | 89 | 1013.2 |
| 20260903073053 | 64 | 0 | 0.0 | 3.0 | 0.00 | 0.27 | 0.00 | 90 | 1022.7 |
| 20260903073018 | 64 | 83 | 0.0 | 2.0 | 0.00 | 0.27 | 0.00 | 90 | 1013.3 |
| 20260903071553 | 64 | 0 | 0.0 | 2.0 | 0.00 | 0.27 | 0.00 | 88 | 1022.7 |
| 20260903071508 | 64 | 87 | 0.0 | 2.0 | 0.00 | 0.27 | 0.00 | 89 | 1013.5 |
| 20260903070049 | 64 | 0 | 1.0 | 3.0 | 0.00 | 0.27 | 0.00 | 89 | 1022.7 |
| 20260903070006 | 64 | 80 | 1.0 | 3.0 | 0.00 | 0.27 | 0.00 | 90 | 1013.5 |
| 20260903064544 | 64 | 71 | 0.0 | 3.0 | 0.00 | 0.27 | 0.00 | 90 | 1022.8 |
| 20260903064504 | 64 | 71 | 0.0 | 3.0 | 0.00 | 0.27 | 0.00 | 91 | 1013.6 |
| 20260903063042 | 64 | 0 | 0.0 | 2.0 | 0.00 | 0.27 | 0.00 | 91 | 1022.9 |
| 20260903063004 | 64 | 108 | 0.0 | 2.0 | 0.00 | 0.27 | 0.00 | 91 | 1013.7 |
| 20260903061551 | 65 | 0 | 0.0 | 3.0 | 0.00 | 0.27 | 0.00 | 91 | 1023.0 |
| 20260903061502 | 65 | 108 | 0.0 | 3.0 | 0.00 | 0.27 | 0.00 | 91 | 1013.7 |
| 20260903060049 | 65 | 96 | 0.0 | 3.0 | 0.00 | 0.27 | 0.00 | 91 | 1023.1 |
| 20260903060001 | 65 | 96 | 0.0 | 3.0 | 0.00 | 0.27 | 0.00 | 92 | 1014.0 |
| 20260903054559 | 64 | 74 | 0.0 | 6.0 | 0.00 | 0.27 | 0.00 | 94 | 1013.9 |
| 20260903054544 | 64 | 0 | 0.0 | 7.0 | 0.00 | 0.27 | 0.00 | 94 | 1022.9 |
| 20260903053103 | 64 | 0 | 0.0 | 3.0 | 0.00 | 0.27 | 0.00 | 95 | 1022.9 |
| 20260903051606 | 64 | 351 | 0.0 | 0.0 | 0.00 | 0.27 | 0.00 | 97 | 1013.8 |
| 20260903051551 | 64 | 0 | 0.0 | 0.0 | 0.00 | 0.27 | 0.00 | 96 | 1022.9 |
| 20260903050055 | 64 | 351 | 0.0 | 0.0 | 0.00 | 0.27 | 0.00 | 96 | 1013.7 |
| 20260903050050 | 64 | 0 | 0.0 | 0.0 | 0.00 | 0.27 | 0.00 | 96 | 1022.8 |
| 20260903044557 | 64 | 351 | 0.0 | 0.0 | 0.00 | 0.27 | 0.27 | 96 | 1013.7 |
| 20260903044553 | 64 | 0 | 0.0 | 0.0 | 0.00 | 0.27 | 0.27 | 96 | 1022.8 |
| 20260903043100 | 64 | 351 | 0.0 | 3.0 | 0.00 | 0.27 | 0.27 | 96 | 1013.7 |
| 20260903043048 | 64 | 0 | 0.0 | 3.0 | 0.00 | 0.27 | 0.27 | 96 | 1022.8 |
| 20260903041604 | 64 | 0 | 0.0 | 1.0 | 0.00 | 0.27 | 0.27 | 95 | 1022.9 |
| 20260903041557 | 64 | 351 | 0.0 | 1.0 | 0.00 | 0.27 | 0.27 | 96 | 1013.8 |
| 20260903040108 | 64 | 0 | 1.0 | 4.0 | 0.00 | 0.27 | 0.27 | 96 | 1022.7 |
| 20260903040052 | 65 | 351 | 0.0 | 4.0 | 0.00 | 0.27 | 0.27 | 96 | 1013.5 |
| 20260903034555 | 65 | 218 | 0.0 | 0.0 | 0.00 | 0.27 | 0.27 | 96 | 1013.6 |
| 20260903034549 | 65 | 0 | 0.0 | 0.0 | 0.00 | 0.27 | 0.27 | 96 | 1022.8 |
| 20260903033052 | 65 | 218 | 0.0 | 0.0 | 0.00 | 0.27 | 0.27 | 96 | 1013.5 |
| 20260903033047 | 65 | 0 | 0.0 | 0.0 | 0.00 | 0.27 | 0.27 | 95 | 1022.7 |
| 20260903031551 | 66 | 218 | 0.0 | 0.0 | 0.00 | 0.27 | 0.27 | 95 | 1013.5 |
| 20260903031543 | 66 | 0 | 0.0 | 0.0 | 0.00 | 0.27 | 0.27 | 95 | 1022.7 |
| 20260903030053 | 66 | 218 | 0.0 | 0.0 | 0.00 | 0.27 | 0.27 | 95 | 1013.5 |
| 20260903030051 | 66 | 0 | 0.0 | 0.0 | 0.00 | 0.27 | 0.27 | 94 | 1022.7 |
| 20260903024550 | 66 | 218 | 0.0 | 0.0 | 0.00 | 0.27 | 0.27 | 95 | 1013.3 |
| 20260903023050 | 67 | 218 | 0.0 | 0.0 | 0.00 | 0.27 | 0.27 | 94 | 1013.3 |
| 20260903023044 | 67 | 0 | 0.0 | 0.0 | 0.00 | 0.27 | 0.27 | 93 | 1022.6 |
| 20260903021553 | 68 | 218 | 0.0 | 0.0 | 0.00 | 0.27 | 0.27 | 93 | 1013.2 |
| 20260903021544 | 68 | 0 | 0.0 | 0.0 | 0.00 | 0.27 | 0.27 | 92 | 1022.5 |
| 20260903020049 | 68 | 218 | 0.0 | 0.0 | 0.00 | 0.27 | 0.27 | 93 | 1013.1 |
| 20260903020044 | 68 | 0 | 0.0 | 0.0 | 0.00 | 0.27 | 0.27 | 92 | 1022.5 |
| 20260903014615 | 68 | 218 | 0.0 | 2.0 | 0.00 | 0.27 | 0.27 | 92 | 1013.2 |
| 20260903014555 | 68 | 0 | 0.0 | 2.0 | 0.00 | 0.27 | 0.27 | 92 | 1022.4 |
| 20260903013052 | 69 | 0 | 0.0 | 0.0 | 0.00 | 0.27 | 0.27 | 89 | 1022.3 |
| 20260903013050 | 69 | 218 | 0.0 | 0.0 | 0.00 | 0.27 | 0.27 | 89 | 1013.1 |
| 20260903011603 | 69 | 218 | 0.0 | 0.0 | 0.00 | 0.27 | 0.27 | 89 | 1012.8 |
| 20260903011549 | 69 | 0 | 0.0 | 0.0 | 0.00 | 0.27 | 0.27 | 89 | 1022.2 |
| 20260903010047 | 71 | 218 | 0.0 | 0.0 | 0.00 | 0.27 | 0.27 | 86 | 1012.8 |
| 20260903004555 | 72 | 0 | 0.0 | 0.0 | 0.00 | 0.27 | 0.27 | 82 | 1021.9 |
| 20260903004548 | 72 | 218 | 0.0 | 0.0 | 0.00 | 0.27 | 0.27 | 83 | 1012.6 |
| 20260903003048 | 73 | 0 | 0.0 | 0.0 | 0.00 | 0.27 | 0.27 | 80 | 1021.9 |
| 20260903001600 | 75 | 0 | 0.0 | 1.0 | 0.00 | 0.27 | 0.27 | 77 | 1022.0 |
| 20260903001546 | 75 | 218 | 0.0 | 0.0 | 0.00 | 0.27 | 0.27 | 77 | 1012.7 |
| 20260903000052 | 76 | 218 | 0.0 | 0.0 | 0.00 | 0.27 | 0.27 | 76 | 1012.6 |
| 20260902234549 | 79 | 218 | 0.0 | 2.0 | 0.00 | 0.27 | 0.27 | 69 | 1021.6 |
| 20260902234544 | 79 | 218 | 1.0 | 2.0 | 0.00 | 0.27 | 0.27 | 68 | 1012.4 |
| 20260902233052 | 79 | 219 | 1.0 | 3.0 | 0.00 | 0.27 | 0.27 | 66 | 1012.4 |
| 20260902233044 | 79 | 219 | 1.0 | 4.0 | 0.00 | 0.27 | 0.27 | 67 | 1021.7 |
| 20260902231547 | 80 | 222 | 1.0 | 3.0 | 0.00 | 0.27 | 0.27 | 66 | 1012.5 |
| 20260902231543 | 80 | 222 | 1.0 | 4.0 | 0.00 | 0.27 | 0.27 | 65 | 1021.8 |
| 20260902230100 | 80 | 225 | 3.0 | 4.0 | 0.00 | 0.27 | 0.27 | 62 | 1012.4 |
| 20260902230051 | 80 | 225 | 2.0 | 4.0 | 0.00 | 0.27 | 0.27 | 61 | 1021.8 |
| 20260902224555 | 81 | 229 | 1.0 | 4.0 | 0.00 | 0.27 | 0.27 | 59 | 1021.6 |
| 20260902224547 | 81 | 229 | 2.0 | 4.0 | 0.00 | 0.27 | 0.27 | 59 | 1012.4 |
| 20260902223045 | 81 | 226 | 1.0 | 6.0 | 0.00 | 0.27 | 0.27 | 60 | 1021.8 |
| 20260902223043 | 81 | 226 | 1.0 | 6.0 | 0.00 | 0.27 | 0.27 | 61 | 1012.4 |
| 20260902221550 | 81 | 193 | 1.0 | 6.0 | 0.00 | 0.27 | 0.27 | 58 | 1021.8 |
| 20260902221542 | 81 | 190 | 2.0 | 6.0 | 0.00 | 0.27 | 0.27 | 60 | 1012.4 |
| 20260902220053 | 81 | 161 | 2.0 | 6.0 | 0.00 | 0.27 | 0.27 | 61 | 1012.5 |
| 20260902214559 | 81 | 230 | 2.0 | 6.0 | 0.00 | 0.27 | 0.27 | 60 | 1012.6 |
| 20260902213050 | 81 | 204 | 0.0 | 5.0 | 0.00 | 0.27 | 0.27 | 60 | 1022.0 |
| 20260902213041 | 81 | 204 | 0.0 | 5.0 | 0.00 | 0.27 | 0.27 | 61 | 1012.7 |
| 20260902211544 | 80 | 192 | 2.0 | 5.0 | 0.00 | 0.27 | 0.27 | 61 | 1022.1 |
| 20260902211540 | 80 | 196 | 2.0 | 5.0 | 0.00 | 0.27 | 0.27 | 61 | 1012.8 |
| 20260902210112 | 81 | 244 | 2.0 | 8.0 | 0.00 | 0.27 | 0.27 | 59 | 1022.2 |
| 20260902210040 | 81 | 265 | 2.0 | 8.0 | 0.00 | 0.27 | 0.27 | 60 | 1012.9 |
| 20260902204551 | 81 | 202 | 3.0 | 9.0 | 0.00 | 0.27 | 0.27 | 58 | 1022.1 |
| 20260902204539 | 81 | 202 | 3.0 | 9.0 | 0.00 | 0.27 | 0.27 | 58 | 1012.7 |
| 20260902203051 | 81 | 209 | 2.0 | 7.0 | 0.00 | 0.27 | 0.27 | 57 | 1022.1 |
| 20260902203039 | 81 | 208 | 2.0 | 7.0 | 0.00 | 0.27 | 0.27 | 57 | 1012.8 |
| 20260902201544 | 80 | 189 | 3.0 | 10.0 | 0.00 | 0.27 | 0.27 | 60 | 1022.1 |
| 20260902201541 | 80 | 189 | 3.0 | 6.0 | 0.00 | 0.27 | 0.27 | 61 | 1012.8 |
| 20260902200106 | 80 | 252 | 3.0 | 7.0 | 0.00 | 0.27 | 0.27 | 62 | 1022.5 |
| 20260902200035 | 80 | 254 | 4.0 | 6.0 | 0.00 | 0.27 | 0.27 | 62 | 1013.0 |